Regional Weather Roundup
Issued by NWS Newport/Morehead, NC

Current Version | Previous Version | Text Only | Print | Product List | Glossary On
Versions: 1 2 3 4 5 6 7 8 9 10 11 12 13 14 15 16 17 18 19 20 21 22 23 24 25 26 27 28 29 30 31 32 33 34 35 36 37 38 39 40 41 42 43 44 45 46 47 48 49 50
000
ASUS42 KMHX 280426
RWRMHX
WEATHER ROUNDUP FOR EASTERN NORTH CAROLINA
NATIONAL WEATHER SERVICE NEWPORT/MOREHEAD CITY NC
1200 AM EDT FRI JUL 28 2017

NOTE: "FAIR" INDICATES FEW OR NO CLOUDS BELOW 12,000 FEET
WITH NO SIGNIFICANT WEATHER AND/OR OBSTRUCTIONS TO VISIBILITY

NCZ015>017-031-032-045>047-102-103-280500-
NORTH COAST

CITY           SKY/WX    TMP DP  RH WIND       PRES   REMARKS
EDENTON        PTCLDY    80  73  77 SW14      29.92F
ELIZABETH CITY CLOUDY    80  73  79 S13       29.91F
KITTY HAWK     CLOUDY    78  70  74 SW6       29.92S
MANTEO         CLOUDY    79  71  77 SW14      29.93F

$$

NCZ045>047-081-094-103-104-280500-
CENTRAL COAST

CITY           SKY/WX    TMP DP  RH WIND       PRES   REMARKS
FRISCO         CLOUDY    80  71  74 S12       29.95F

$$

NCZ095-097-098-100-101-280500-
SOUTHERN COAST

CITY           SKY/WX    TMP DP  RH WIND       PRES   REMARKS
BEAUFORT       CLOUDY    81  72  74 S12       29.95F
CEDAR ISLAND   NOT AVBL
JACKSONVILLE   CLOUDY    77  75  93 S3        29.94F
PINEY ISLAND   MOCLDY   N/A N/A N/A S7        29.95F
WILMINGTON     PTCLDY    77  74  90 CALM      29.96F


$$

NCZ011>013-027>030-043-044-078>080-089-090>093-098-280500-
COASTAL PLAIN

CITY           SKY/WX    TMP DP  RH WIND       PRES   REMARKS
AHOSKIE        LGT RAIN  76  68  77 CALM      29.91S
CLINTON        PTCLDY    76  74  91 CALM      29.94F
ELIZABETHTOWN  NOT AVBL
GOLDSBORO      PTCLDY    79  77  94 S7        29.92F
GREENVILLE     CLOUDY    79  73  83 SW10G16   29.95S
HAVELOCK       CLOUDY    77  69  76 S5        29.96F
KENANSVILLE    CLOUDY    75  72  88 CALM      29.94F
KINSTON        CLOUDY    78  73  84 S10       29.94F
NEW BERN       CLOUDY    76  73  91 S5        29.96F
RICHLANDS      PTCLDY    75  74  96 S5        29.96F
ROCKY MOUNT    LGT RAIN  75  75 100 S3        29.93S FOG
WASHINGTON     CLOUDY    78  72  83 S6        29.93F
WHITEVILLE     PTCLDY    77  73  90 CALM      29.95S

$$

AMZ130-135-150-152-154-156-158-170-250-252-270-ANZ085-086-088-633-658-670-280500-
MARINE OBSERVATIONS

STATION/POSITION TIME  TEMP    WIND        PRES    WAVE   SWELL
                       AIR SEA DIR/SP/G            HT/PER HT/PER
                 (UTC) (F)     (DEG/KT/KT) (MB)    (FT/S) (FT/S)
CHESAPEAKE LIGHT NOT AVBL
64 E VA BEACH    0350   79 77  210/ 17/ 21 1012.9    4/ 4   2/ 9
DUCK             0400   80 66  200/ 17/ 21 1012.5
2 E DUCK         0400      72                N/A     2/ 9
OREGON INLET     0400   81 81  200/ 19/ 23 1013.4
13E OREGON INLT  0348      77                N/A     2/ 6   2/ 6
HATTERAS CG      0400   80 80  190/  6/ 11 1014.1
DIAMOND BUOY     0350   81 83  190/ 17/ 19 1014.1    3/ 8   2/ 8
CAPE LOOKOUT     0400   81     180/ 14/ 16 1013.9
BEAUFORT LAB     0400   81 80  190/ 14/ 16 1013.5
30 SE NEW RVR IN 0308   82 84  190/ 10/ 14 1014.8
30 SE NEW RVR IN 0343      84                N/A     2/ 3
27 SE WRIGHTSVLE 0408   81 83  220/ 12/ 17 1014.1
5 SE WRIGHTSVLE  0308   81 82  220/  8/ 14 1014.4
225 S CAPE HAT   0350   82 83  220/  8/ 10 1015.0    3/ 7   3/ 7
41 SE CHARLESTON 0410   82 81  180/ 10/ 12 1013.9

$$



USA.gov is the U.S. government's official web portal to all federal, state and local government web resources and services.